RH
6 8 6 3 3 2 4 5 1 2 1 1 1 1 1 1 1 2 2 2 2 2 2 3 3 3 3 3 3 3 3 2 2 2 2 2 2 2 3 3 3 4 6 9 12
7 5 3 3 3 3 6 2 1 1 1 1 1 1 1 1 1 2 2 2 2 2 2 2 3 3 3 3 3 3 3 2 2 2 2 2 2 2 3 3 3 4 6 10 13
4 3 3 3 3 5 5 2 1 1 1 1 1 1 1 1 2 2 2 2 2 2 2 2 2 3 3 3 2 2 2 2 2 2 2 2 2 3 3 4 5 6 7 12 14
3 3 3 3 5 7 2 2 1 1 1 1 1 1 1 1 2 2 2 2 2 2 2 2 2 2 2 2 2 2 2 2 2 2 2 3 4 5 6 7 8 8 12 14 14
3 3 4 4 8 6 2 2 1 1 1 1 1 1 2 2 2 2 2 2 2 2 2 2 2 2 2 2 2 2 3 3 4 4 5 6 8 9 9 10 12 14 15 14 14
4 4 4 6 9 6 2 2 1 1 1 1 2 2 2 1 1 2 2 2 1 1 1 2 2 2 2 4 6 9 11 12 10 10 10 10 10 11 13 15 15 15 14 15 17
5 5 7 10 9 6 2 2 2 1 1 1 1 2 2 2 2 2 2 1 1 1 2 3 5 9 13 17 20 20 17 14 12 10 10 12 14 16 15 14 14 14 16 19 24
6 6 11 12 10 7 4 2 2 1 1 2 2 2 2 2 1 1 1 1 1 3 6 11 16 19 22 22 22 19 16 14 12 13 16 17 15 17 16 16 18 22 27 28 30
8 10 15 14 11 9 6 2 2 2 2 2 2 2 2 2 1 1 1 1 3 9 13 17 20 22 23 22 20 19 15 13 15 17 18 20 18 22 22 26 27 29 28 30 31
11 15 16 14 14 9 6 4 2 2 2 2 2 2 2 2 2 1 1 2 10 14 17 17 20 22 23 21 19 16 14 17 18 22 22 22 21 18 26 23 24 27 28 27 28
14 16 15 16 13 8 4 3 2 2 1 2 2 2 2 2 2 1 2 8 14 17 17 18 20 22 22 20 16 15 17 20 21 21 20 18 18 20 20 23 25 26 28 27 28
14 14 15 18 13 8 3 3 2 2 2 2 2 2 2 2 2 2 4 14 17 18 17 18 20 20 20 16 16 18 18 14 18 15 17 19 22 23 23 23 22 25 26 28 28
13 13 18 19 16 8 4 3 2 3 2 2 2 2 2 2 2 3 14 17 19 16 17 18 19 18 17 17 15 13 12 13 15 18 19 20 18 17 18 18 20 26 29 31 32
15 16 18 21 17 12 7 6 4 3 3 3 3 3 2 3 4 13 17 19 18 16 17 17 16 16 16 15 12 12 13 14 15 16 15 15 15 16 19 22 24 26 27 29 32
21 20 19 21 20 18 16 17 16 12 8 8 8 6 6 5 7 14 18 20 16 15 16 16 14 14 13 12 12 13 14 15 16 17 16 16 17 20 20 21 22 23 26 30 31
23 21 20 21 23 20 20 22 23 18 12 13 14 10 7 5 15 19 20 20 16 15 14 14 13 13 12 12 13 14 16 17 17 16 14 18 19 21 22 23 23 24 24 25 28
21 21 20 20 22 22 21 22 23 24 19 16 19 17 16 16 19 19 20 20 16 15 13 13 13 12 12 13 14 16 17 18 14 15 17 19 20 24 26 28 28 28 28 27 26
16 19 20 21 21 22 23 22 22 23 22 18 17 19 19 19 20 20 20 20 16 14 13 13 14 13 14 13 14 14 14 14 15 18 19 18 20 22 22 24 28 29 30 30 30
12 14 16 20 22 23 23 23 23 23 24 23 24 22 20 20 19 18 20 21 18 15 14 14 13 13 14 14 14 15 14 14 14 16 16 16 14 17 21 22 22 25 29 31 31
10 10 13 15 20 21 24 24 24 25 23 22 23 22 21 20 20 20 21 23 21 18 14 14 13 12 14 14 14 14 14 14 14 15 15 15 16 16 19 22 26 28 30 32 32
14 10 10 12 15 19 21 26 25 24 24 23 23 21 22 22 21 22 24 23 22 21 14 14 12 12 13 13 14 14 14 15 15 17 18 15 22 17 18 21 21 27 27 31 36
25 18 14 11 12 14 19 25 27 25 24 24 25 24 24 23 23 22 25 24 20 21 16 13 13 12 13 13 13 14 14 15 16 14 17 19 19 18 20 21 21 22 24 28 35
27 25 23 18 12 12 16 20 24 27 26 24 24 26 26 26 25 25 27 25 16 22 18 14 12 12 12 14 14 15 16 15 17 18 18 19 22 21 23 23 23 22 25 27 36
29 26 23 21 20 16 13 16 20 23 26 27 26 26 28 28 27 26 29 30 20 20 23 14 13 12 13 12 12 15 17 16 17 18 17 20 16 25 25 24 25 22 22 27 34
34 33 31 26 21 20 18 15 16 20 24 28 27 28 29 28 29 30 31 34 29 17 25 18 16 14 12 12 12 14 16 17 16 20 17 20 19 22 24 24 24 22 24 25 31
53 39 37 35 31 23 20 20 19 18 16 25 28 29 30 32 32 32 32 36 37 22 23 25 20 18 13 12 12 11 14 19 18 19 20 22 20 22 24 24 24 22 23 25 28
50 53 44 37 40 37 30 22 21 21 24 24 31 30 33 35 33 34 33 35 40 36 16 17 26 21 14 12 14 11 13 18 21 21 22 23 24 21 22 22 21 20 22 25 27
Wind_Speed
14 11 9 9 9 9 9 6 9 12 14 16 20 21 19 18 15 15 17 13 12 10 10 9 8 6 5 4 2 1 2 2 4 6 8 10 11 13 14 15 16 17 16 18 20
13 12 11 10 10 10 8 9 11 15 16 18 20 20 19 17 14 13 14 11 8 7 6 4 3 1 2 2 4 7 8 9 9 10 11 13 14 15 16 17 18 18 19 21 22
13 11 10 10 12 10 9 11 12 15 17 19 19 19 18 15 13 13 12 8 6 3 1 1 3 5 7 8 9 11 12 13 13 14 15 15 15 16 18 19 19 19 20 21 23
11 10 11 13 12 9 9 12 15 16 18 18 19 18 16 14 11 10 7 5 2 2 4 6 7 10 11 13 14 15 16 16 17 16 16 16 16 16 17 18 18 19 20 22 26
11 12 13 13 11 8 8 13 17 17 18 19 18 16 14 11 8 6 3 1 3 6 8 9 11 12 13 14 15 16 16 16 15 14 14 14 16 16 17 18 18 20 22 25 28
13 13 13 13 10 7 11 14 16 18 19 18 17 15 13 9 6 2 2 5 7 9 11 11 12 13 13 13 13 13 13 13 12 12 13 14 14 16 18 20 22 22 24 28 30
13 13 13 11 8 7 11 12 16 18 19 17 16 13 11 6 4 2 5 8 9 11 11 10 10 10 10 10 11 12 12 12 12 11 12 13 17 19 21 22 23 23 27 29 33
13 13 11 9 8 8 10 12 16 18 18 17 15 13 10 7 3 5 8 9 9 9 9 8 9 10 11 11 11 11 12 10 11 11 14 16 20 20 22 23 25 26 28 32 33
14 14 11 9 8 6 8 14 18 19 18 17 14 12 12 8 7 9 11 10 7 9 9 11 12 11 10 9 11 11 11 10 11 13 16 19 23 20 23 25 25 27 28 30 31
15 13 10 9 7 7 9 13 21 21 20 18 16 14 12 9 9 10 11 7 7 9 11 13 11 9 9 10 11 10 10 11 13 16 18 18 21 23 23 23 24 24 27 30 33
14 11 9 7 7 7 10 13 17 20 22 18 17 18 13 10 11 10 8 6 9 11 12 11 10 10 10 9 9 9 11 13 14 15 17 18 20 21 20 22 24 25 28 31 35
13 11 9 8 6 7 9 10 13 18 17 16 17 15 13 12 11 9 6 7 9 11 12 10 10 9 9 7 8 10 10 11 13 15 15 16 17 18 20 22 25 28 30 33 35
12 11 9 7 6 6 6 7 10 13 16 15 15 13 12 11 11 8 5 8 10 11 10 10 9 8 8 7 7 8 8 9 12 12 14 15 15 18 21 24 26 27 30 32 35
12 12 11 9 7 5 3 4 6 11 12 12 11 11 11 11 9 7 7 9 11 10 10 8 8 8 7 5 4 6 7 9 11 12 14 16 18 17 20 22 27 31 33 35 39
12 12 13 12 9 7 5 6 6 6 9 10 9 11 13 11 9 8 9 11 12 9 9 8 7 7 5 3 3 5 6 8 10 12 13 15 17 20 24 26 29 32 35 38 42
14 13 13 13 11 10 10 9 7 8 8 7 8 8 9 9 9 8 10 12 12 10 8 8 7 6 4 2 3 4 5 7 8 11 12 16 19 22 27 29 30 32 36 39 42
17 15 14 14 14 13 13 12 11 9 10 10 8 8 8 9 10 10 11 12 13 11 9 9 9 8 6 4 2 3 4 5 8 12 13 15 18 21 23 26 30 34 38 41 44
21 19 18 15 15 16 16 16 15 12 12 12 12 11 11 12 13 13 14 14 13 12 12 12 12 11 9 6 5 5 6 8 10 12 16 17 18 22 24 26 30 34 38 42 45
24 23 22 20 18 18 19 19 17 18 17 16 15 15 15 16 16 17 16 15 15 15 15 14 14 12 12 10 8 8 9 10 11 12 13 18 20 21 26 29 32 35 38 42 46
25 26 25 24 22 21 21 20 20 21 22 20 20 19 18 18 18 18 18 18 17 17 18 17 16 16 15 14 12 12 13 13 15 19 20 19 22 25 30 32 35 37 40 43 46
26 28 28 27 27 26 23 22 23 24 24 23 23 23 23 22 21 20 20 20 19 19 19 20 19 18 18 17 16 15 16 17 18 20 23 26 23 30 30 31 34 38 43 47 49
30 29 29 30 30 29 27 26 26 26 26 26 26 26 26 25 23 22 21 22 21 21 21 22 22 21 19 19 19 18 19 20 22 22 23 26 27 29 32 34 35 37 41 46 51
32 33 32 31 31 31 31 30 30 28 29 28 27 27 28 27 26 24 23 23 22 23 23 23 23 24 23 23 22 21 23 23 23 24 24 28 28 36 35 36 38 37 41 45 50
37 36 34 34 33 33 34 33 34 32 32 31 30 29 30 30 29 26 26 25 25 25 26 26 24 26 25 26 26 24 24 26 26 26 27 25 26 29 34 39 42 46 45 45 49
39 39 37 37 35 36 36 35 35 36 36 34 31 31 33 31 31 29 29 28 27 27 28 27 26 28 28 29 28 27 27 26 28 27 30 27 32 34 36 40 43 44 45 46 48
43 41 41 40 39 38 38 35 35 38 39 37 34 36 34 31 34 31 32 30 30 29 30 30 29 31 30 31 31 29 29 28 28 28 32 32 31 34 36 41 44 46 47 46 49
51 46 45 44 42 41 39 37 38 38 38 38 36 38 36 35 36 34 33 33 33 32 32 33 34 34 33 32 34 32 27 31 33 30 34 35 35 37 38 41 46 48 50 49 49
Wind_Direction
190 190 193 193 196 180 168 187 173 155 146 143 140 131 126 122 125 118 107 108 101 99 97 98 95 97 97 93 66 15 338 313 301 303 305 308 307 308 311 314 314 313 310 312 313
189 189 183 189 193 180 182 180 167 157 152 150 143 136 136 133 133 123 116 118 114 106 101 98 87 36 352 337 319 303 306 307 307 306 306 308 307 310 310 310 309 312 311 314 316
190 181 177 190 188 181 197 175 170 162 160 154 144 142 140 143 142 135 129 135 133 124 124 320 307 306 310 308 308 308 307 307 307 311 310 310 311 311 312 312 311 311 308 311 315
176 177 178 191 182 191 192 173 175 165 165 163 148 148 145 153 154 140 134 141 141 253 282 295 295 297 300 306 307 307 308 307 308 310 310 311 312 313 310 309 310 309 309 315 315
175 178 181 188 185 192 184 183 174 171 172 163 154 153 153 163 158 140 147 225 297 297 299 302 301 300 303 305 307 307 310 313 315 314 313 313 314 313 315 318 317 316 317 317 317
173 179 182 185 196 187 192 185 181 179 176 168 161 164 170 178 166 176 280 302 305 303 303 305 306 310 312 311 315 317 320 320 320 319 320 319 320 323 324 325 325 322 320 318 318
176 181 181 190 197 196 195 191 190 185 185 175 174 178 183 209 189 241 291 301 304 307 308 315 321 321 325 326 328 326 328 330 332 334 334 332 329 332 330 331 328 326 322 322 321
177 180 182 197 207 206 200 199 193 192 186 184 185 190 208 227 242 279 296 304 312 313 318 325 331 332 335 332 334 334 334 339 341 343 341 335 330 334 333 332 331 330 327 325 325
175 181 190 207 221 220 224 211 203 202 200 200 207 212 228 245 268 290 302 310 312 316 326 336 336 338 339 341 339 341 343 350 347 342 338 335 330 340 334 333 335 329 326 327 327
180 185 198 215 236 241 228 223 216 216 220 225 233 238 238 254 274 292 300 305 309 322 332 337 334 339 336 341 344 348 349 346 339 336 333 337 334 344 338 336 336 333 329 330 328
184 190 209 229 246 246 233 225 222 222 228 230 233 234 241 259 276 281 288 296 313 327 331 332 330 335 338 342 343 345 342 334 338 339 343 345 346 345 347 343 342 336 337 333 330
191 200 214 233 246 250 234 221 219 220 223 227 233 238 250 261 268 273 276 298 315 325 328 328 329 330 326 336 339 338 342 345 348 351 358 354 354 353 350 348 345 342 337 334 332
204 208 216 235 248 258 236 224 223 223 222 227 235 245 251 255 260 259 272 303 312 322 323 326 321 317 315 331 341 348 358 359 12 8 10 9 359 357 355 353 349 347 344 340 340
213 218 220 229 235 252 225 210 217 226 224 233 242 245 248 249 249 249 291 309 314 316 315 315 306 303 309 328 354 6 9 16 26 24 19 15 9 4 2 4 3 3 357 352 349
224 226 228 229 229 234 225 224 222 231 228 240 249 247 245 246 243 256 292 304 307 304 302 298 288 288 299 319 359 11 17 26 30 32 25 17 9 12 10 10 6 3 2 0 358
232 239 239 236 232 232 239 240 239 242 237 241 250 240 240 236 246 268 294 300 300 287 285 276 268 270 272 289 342 6 23 26 28 25 8 13 6 6 4 2 360 358 357 358 357
240 244 249 250 244 238 242 245 249 254 254 247 261 247 245 249 262 278 290 296 292 277 270 264 261 256 256 260 298 345 5 357 347 360 8 360 1 359 356 354 352 353 354 354 353
243 245 248 251 253 249 246 248 250 253 256 255 259 268 266 262 268 278 285 289 287 271 261 255 255 257 257 261 274 300 321 334 343 349 347 349 354 357 349 351 350 349 350 351 351
244 246 248 250 252 252 252 252 256 259 258 260 267 270 272 276 276 275 278 282 280 265 258 254 256 257 257 263 275 287 300 312 324 329 339 343 344 350 353 352 347 346 348 348 348
247 247 249 249 252 256 256 255 256 261 264 266 268 270 274 278 280 278 277 278 274 262 256 254 256 257 258 263 273 282 294 305 315 325 336 346 336 347 350 352 352 350 347 347 346
249 248 248 250 250 253 258 259 256 259 262 266 269 270 272 276 279 280 278 278 273 259 256 256 256 256 260 263 270 281 292 304 313 323 327 336 345 342 343 346 348 347 347 347 347
250 251 251 249 250 251 254 257 257 259 262 264 267 269 269 272 274 277 276 276 270 261 256 258 257 257 261 265 272 281 290 298 306 315 323 326 337 335 341 343 344 343 343 345 346
250 252 252 253 254 253 252 254 259 263 266 266 267 267 268 269 270 272 272 270 268 262 257 258 258 258 261 265 272 279 286 293 300 306 318 322 336 330 334 337 339 343 339 343 345
250 251 255 255 255 255 255 254 258 259 263 267 268 270 269 268 269 268 268 268 265 261 255 257 257 257 262 269 270 277 282 287 294 301 307 318 325 320 327 334 336 340 341 342 343
252 253 251 254 257 257 257 256 258 261 262 265 267 268 267 268 268 268 266 265 264 261 257 256 256 260 262 268 272 275 279 281 291 296 305 313 321 322 325 330 331 335 336 339 341
250 252 254 253 254 257 258 260 259 260 260 262 266 264 267 268 265 265 266 266 263 262 259 258 258 260 261 268 271 274 277 282 285 295 301 305 313 313 320 324 327 331 333 336 339
253 253 253 254 254 256 259 259 257 259 259 261 261 263 264 264 264 264 262 263 265 263 263 262 262 262 263 265 269 278 284 284 286 292 296 302 306 309 316 321 323 326 329 333 335